| time (UTC) | temp C | wind direction | speed KPH | gust KPH | rain 1hr cm | rain 24hr cm | rain mn cm | humidity % | barometer mb |
| 20260507230000 | 25 | 230 | 1.6 | 4.8 | 0.00 | 0.00 | 0.00 | 62 | 1017.8 |
| 20260507224602 | 25 | 226 | 1.6 | 6.4 | 0.00 | 0.00 | 0.00 | 62 | 1017.8 |
| 20260507223102 | 25 | 246 | 1.6 | 6.4 | 0.00 | 0.00 | 0.00 | 60 | 1018.3 |
| 20260507221600 | 25 | 218 | 1.6 | 6.4 | 0.00 | 0.00 | 0.00 | 61 | 1018.6 |
| 20260507220100 | 25 | 224 | 0.0 | 4.8 | 0.00 | 0.00 | 0.00 | 59 | 1018.6 |
| 20260507214619 | 25 | 192 | 0.0 | 6.4 | 0.00 | 0.00 | 0.00 | 62 | 1018.7 |
| 20260507213108 | 25 | 208 | 3.2 | 8.0 | 0.00 | 0.00 | 0.00 | 63 | 1019.0 |
| 20260507211624 | 24 | 137 | 1.6 | 6.4 | 0.00 | 0.00 | 0.00 | 64 | 1019.2 |
| 20260507210002 | 23 | 177 | 3.2 | 6.4 | 0.00 | 0.00 | 0.00 | 65 | 1019.3 |
| 20260507204608 | 23 | 177 | 0.0 | 6.4 | 0.00 | 0.00 | 0.00 | 65 | 1019.5 |
| 20260507203103 | 23 | 212 | 3.2 | 6.4 | 0.00 | 0.00 | 0.00 | 64 | 1019.7 |
| 20260507201608 | 23 | 208 | 1.6 | 4.8 | 0.00 | 0.00 | 0.00 | 69 | 1019.8 |
| 20260507200059 | 22 | 233 | 3.2 | 8.0 | 0.00 | 0.00 | 0.00 | 68 | 1019.8 |
| 20260507194635 | 22 | 142 | 1.6 | 6.4 | 0.00 | 0.00 | 0.00 | 71 | 1020.0 |
| 20260507193101 | 22 | 193 | 1.6 | 6.4 | 0.00 | 0.00 | 0.00 | 71 | 1020.1 |
| 20260507191601 | 22 | 201 | 1.6 | 6.4 | 0.00 | 0.00 | 0.00 | 71 | 1020.3 |
| 20260507190100 | 22 | 149 | 3.2 | 9.7 | 0.00 | 0.00 | 0.00 | 70 | 1020.2 |
| 20260507184607 | 22 | 177 | 1.6 | 6.4 | 0.00 | 0.00 | 0.00 | 73 | 1020.4 |
| 20260507183100 | 21 | 204 | 1.6 | 6.4 | 0.00 | 0.00 | 0.00 | 74 | 1020.5 |
| 20260507181600 | 21 | 145 | 0.0 | 6.4 | 0.00 | 0.00 | 0.00 | 74 | 1020.4 |
| 20260507180106 | 21 | 262 | 1.6 | 6.4 | 0.00 | 0.00 | 0.00 | 73 | 1020.3 |
| 20260507180002 | 21 | 189 | 3.2 | 6.4 | 0.00 | 0.00 | 0.00 | 73 | 1020.3 |
| 20260507174600 | 21 | 228 | 1.6 | 6.4 | 0.00 | 0.00 | 0.00 | 72 | 1020.3 |
| 20260507173100 | 22 | 188 | 0.0 | 3.2 | 0.00 | 0.00 | 0.00 | 66 | 1020.2 |
| 20260507171604 | 21 | 177 | 0.0 | 6.4 | 0.00 | 0.00 | 0.00 | 65 | 1020.3 |
| 20260507171500 | 21 | 177 | 1.6 | 6.4 | 0.00 | 0.00 | 0.00 | 65 | 1020.3 |
| 20260507170109 | 21 | 29 | 1.6 | 0.0 | 12.01 | 0.00 | 0.00 | 68 | 1020.4 |
| 20260507164607 | 21 | 48 | 1.6 | 4.8 | 0.00 | 0.00 | 0.00 | 68 | 1020.4 |
| 20260507163107 | 21 | 47 | 1.6 | 4.8 | 0.00 | 0.00 | 0.00 | 68 | 1020.5 |
| 20260507161600 | 20 | 187 | 1.6 | 6.4 | 0.00 | 0.00 | 0.00 | 70 | 1020.6 |
| 20260507160001 | 20 | 321 | 1.6 | 4.8 | 0.00 | 0.00 | 0.00 | 71 | 1020.6 |
| 20260507154607 | 19 | 66 | 0.0 | 4.8 | 0.00 | 0.00 | 0.00 | 75 | 1020.6 |
| 20260507154502 | 19 | 46 | 0.0 | 4.8 | 0.00 | 0.00 | 0.00 | 76 | 1020.6 |
| 20260507153059 | 18 | 73 | 0.0 | 3.2 | 0.00 | 0.00 | 0.00 | 77 | 1020.7 |
| 20260507151600 | 17 | 57 | 0.0 | 3.2 | 0.00 | 0.00 | 0.00 | 83 | 1020.6 |
| 20260507150100 | 16 | 42 | 0.0 | 3.2 | 0.00 | 0.00 | 0.00 | 85 | 1020.8 |
| 20260507150002 | 16 | 43 | 0.0 | 3.2 | 0.00 | 0.00 | 0.00 | 85 | 1020.7 |
| 20260507144603 | 15 | 19 | 0.0 | 1.6 | 0.00 | 0.00 | 0.00 | 90 | 1020.7 |
| 20260507143111 | 14 | 32 | 0.0 | 1.6 | 0.00 | 0.00 | 0.00 | 94 | 1020.6 |
| 20260507141559 | 12 | 6 | 0.0 | 1.6 | 0.00 | 0.00 | 0.00 | 96 | 1020.4 |
| 20260507140100 | 12 | 30 | 0.0 | 1.6 | 0.00 | 0.00 | 0.00 | 96 | 1020.3 |
| 20260507134600 | 12 | 16 | 0.0 | 1.6 | 0.00 | 0.00 | 0.00 | 95 | 1020.3 |
| 20260507133108 | 12 | 2 | 0.0 | 3.2 | 0.00 | 0.00 | 0.00 | 95 | 1020.1 |
| 20260507131612 | 12 | 41 | 0.0 | 3.2 | 0.00 | 0.00 | 0.00 | 96 | 1020.2 |
| 20260507130059 | 11 | 30 | 0.0 | 3.2 | 0.00 | 0.00 | 0.00 | 95 | 1020.0 |
| 20260507124603 | 11 | 4 | 0.0 | 1.6 | 0.00 | 0.00 | 0.00 | 96 | 1020.0 |
| 20260507123059 | 11 | 54 | 0.0 | 3.2 | 0.00 | 0.00 | 0.00 | 96 | 1019.9 |
| 20260507121559 | 11 | 55 | 0.0 | 1.6 | 0.00 | 0.00 | 0.00 | 96 | 1019.8 |
| 20260507120059 | 11 | 39 | 0.0 | 0.0 | 0.00 | 0.00 | 0.00 | 95 | 1020.0 |
| 20260507120001 | 11 | 39 | 0.0 | 0.0 | 0.00 | 0.00 | 0.00 | 95 | 1020.0 |
| 20260507114607 | 11 | 48 | 0.0 | 0.0 | 0.00 | 0.00 | 0.00 | 95 | 1020.0 |
| 20260507114500 | 11 | 48 | 0.0 | 0.0 | 0.00 | 0.00 | 0.00 | 95 | 1020.0 |
| 20260507113103 | 11 | 41 | 0.0 | 0.0 | 0.00 | 0.00 | 0.00 | 95 | 1020.0 |
| 20260507111602 | 11 | 41 | 0.0 | 0.0 | 0.00 | 0.00 | 0.00 | 95 | 1020.0 |
| 20260507111500 | 11 | 41 | 0.0 | 0.0 | 0.00 | 0.00 | 0.00 | 95 | 1020.0 |
| 20260507110002 | 11 | 41 | 0.0 | 1.6 | 0.00 | 0.00 | 0.00 | 95 | 1020.0 |
| 20260507104600 | 11 | 58 | 0.0 | 0.0 | 0.00 | 0.00 | 0.00 | 95 | 1020.0 |
| 20260507103059 | 11 | 58 | 0.0 | 0.0 | 0.00 | 0.00 | 0.00 | 95 | 1019.9 |
| 20260507101600 | 11 | 58 | 0.0 | 0.0 | 0.00 | 0.00 | 0.00 | 95 | 1020.1 |
| 20260507100100 | 11 | 58 | 0.0 | 0.0 | 0.00 | 0.00 | 0.00 | 94 | 1020.0 |
| 20260507100001 | 11 | 58 | 0.0 | 0.0 | 0.00 | 0.00 | 0.00 | 94 | 1020.0 |
| 20260507094601 | 11 | 58 | 0.0 | 0.0 | 0.00 | 0.00 | 0.00 | 94 | 1020.1 |
| 20260507093113 | 11 | 58 | 0.0 | 0.0 | 0.00 | 0.00 | 0.00 | 94 | 1020.3 |
| 20260507091600 | 11 | 58 | 0.0 | 0.0 | 0.00 | 0.00 | 0.00 | 94 | 1020.3 |
| 20260507090101 | 11 | 58 | 0.0 | 0.0 | 0.00 | 0.00 | 0.00 | 94 | 1020.3 |
| 20260507090002 | 11 | 58 | 0.0 | 0.0 | 0.00 | 0.00 | 0.00 | 94 | 1020.4 |
| 20260507084602 | 11 | 58 | 0.0 | 0.0 | 0.00 | 0.00 | 0.00 | 94 | 1020.5 |
| 20260507083102 | 11 | 58 | 0.0 | 0.0 | 0.00 | 0.00 | 0.00 | 94 | 1020.6 |
| 20260507081600 | 11 | 58 | 0.0 | 0.0 | 0.00 | 0.00 | 0.00 | 94 | 1020.6 |
| 20260507081501 | 11 | 58 | 0.0 | 0.0 | 0.00 | 0.00 | 0.00 | 94 | 1020.6 |
| 20260507080115 | 12 | 58 | 0.0 | 0.0 | 0.00 | 0.00 | 0.00 | 94 | 1020.6 |
| 20260507080002 | 12 | 58 | 0.0 | 0.0 | 0.00 | 0.00 | 0.00 | 94 | 1020.6 |
| 20260507074502 | 11 | 58 | 0.0 | 0.0 | 0.00 | 0.00 | 0.00 | 94 | 1020.5 |
| 20260507073001 | 11 | 58 | 0.0 | 0.0 | 0.00 | 0.00 | 0.00 | 93 | 1020.6 |
| 20260507071501 | 12 | 58 | 0.0 | 1.6 | 0.00 | 0.00 | 0.00 | 93 | 1020.5 |
| 20260507070010 | 12 | 58 | 0.0 | 1.6 | 0.00 | 0.00 | 0.00 | 92 | 1020.7 |
| 20260507064501 | 12 | 58 | 0.0 | 1.6 | 0.00 | 0.00 | 0.00 | 93 | 1020.6 |
| 20260507063000 | 12 | 62 | 0.0 | 1.6 | 0.00 | 0.00 | 0.00 | 92 | 1020.5 |
| 20260507061502 | 12 | 62 | 0.0 | 1.6 | 0.00 | 0.00 | 0.00 | 93 | 1020.6 |
| 20260507060002 | 13 | 62 | 0.0 | 1.6 | 0.00 | 0.00 | 0.00 | 92 | 1020.5 |
| 20260507054502 | 13 | 62 | 0.0 | 0.0 | 0.00 | 0.00 | 0.00 | 92 | 1020.5 |
| 20260507053003 | 13 | 62 | 0.0 | 1.6 | 0.00 | 0.00 | 0.00 | 91 | 1020.5 |
| 20260507051501 | 13 | 62 | 0.0 | 1.6 | 0.00 | 0.00 | 0.00 | 91 | 1020.5 |
| 20260507050002 | 13 | 62 | 0.0 | 1.6 | 0.00 | 0.00 | 0.00 | 90 | 1020.4 |
| 20260507044500 | 14 | 62 | 0.0 | 1.6 | 0.00 | 0.00 | 0.00 | 90 | 1020.4 |
| 20260507043003 | 14 | 62 | 0.0 | 0.0 | 0.00 | 0.00 | 0.00 | 89 | 1020.1 |
| 20260507041501 | 15 | 62 | 0.0 | 0.0 | 0.00 | 0.00 | 0.00 | 88 | 1019.8 |
| 20260507040003 | 15 | 66 | 0.0 | 0.0 | 0.00 | 0.00 | 0.00 | 88 | 1019.8 |
| 20260507034504 | 15 | 113 | 0.0 | 1.6 | 0.00 | 0.00 | 0.00 | 87 | 1019.7 |
| 20260507033003 | 16 | 159 | 0.0 | 1.6 | 0.00 | 0.00 | 0.00 | 85 | 1019.6 |
| 20260507031501 | 16 | 159 | 0.0 | 1.6 | 0.00 | 0.00 | 0.00 | 83 | 1019.5 |
| 20260507030003 | 17 | 159 | 0.0 | 1.6 | 0.00 | 0.00 | 0.00 | 80 | 1019.5 |
| 20260507024502 | 17 | 159 | 0.0 | 1.6 | 0.00 | 0.00 | 0.00 | 78 | 1019.4 |
| 20260507023001 | 18 | 159 | 0.0 | 0.0 | 0.00 | 0.00 | 0.00 | 75 | 1019.4 |
| 20260507021502 | 18 | 159 | 0.0 | 3.2 | 0.00 | 0.00 | 0.00 | 73 | 1019.3 |
| 20260507020006 | 18 | 175 | 0.0 | 3.2 | 0.00 | 0.00 | 0.00 | 73 | 1019.3 |
| 20260507014501 | 19 | 198 | 0.0 | 3.2 | 0.00 | 0.00 | 0.00 | 72 | 1019.4 |
| 20260507013000 | 19 | 161 | 1.6 | 3.2 | 0.00 | 0.00 | 0.00 | 71 | 1019.3 |
| 20260507011504 | 19 | 177 | 0.0 | 4.8 | 0.00 | 0.00 | 0.00 | 72 | 1019.5 |
| 20260507010004 | 19 | 191 | 0.0 | 3.2 | 0.00 | 0.00 | 0.00 | 71 | 1019.5 |
| 20260507004615 | 19 | 212 | 0.0 | 4.8 | 0.00 | 0.00 | 0.00 | 70 | 1019.5 |
| 20260507003102 | 19 | 338 | 1.6 | 4.8 | 0.00 | 0.00 | 0.00 | 69 | 1019.6 |
| 20260507001602 | 19 | 141 | 0.0 | 4.8 | 0.00 | 0.00 | 0.00 | 70 | 1019.5 |
| 20260507000002 | 19 | 316 | 1.6 | 6.4 | 0.00 | 0.00 | 0.00 | 70 | 1019.5 |
| 20260506234500 | 19 | 258 | 1.6 | 3.2 | 0.00 | 0.00 | 0.00 | 70 | 1019.6 |
| 20260506233101 | 19 | 204 | 0.0 | 4.8 | 0.00 | 0.00 | 0.00 | 71 | 1019.6 |
| 20260506231603 | 19 | 198 | 1.6 | 6.4 | 0.00 | 0.00 | 0.00 | 71 | 1019.8 |